EW8254 Weather Reports


time (UTC)temp
C
wind
direction
speed
KPH
gust
KPH
rain 1hr
cm
rain 24hr
cm
rain mn
cm
humidity
%
barometer
mb
20260506232556 21 271 4.8 14.5 0.00 0.00 0.00 55 1013.5
20260506232055 21 245 6.4 14.5 0.00 0.00 0.00 54 1013.6
20260506231555 21 283 6.4 14.5 0.00 0.00 0.00 54 1013.6
20260506231054 22 284 1.6 9.7 0.00 0.00 0.00 53 1013.6
20260506230553 22 225 1.6 9.7 0.00 0.00 0.00 53 1013.7
20260506230052 22 274 6.4 12.9 0.00 0.00 0.00 52 1013.7
20260506225553 22 248 6.4 12.9 0.00 0.00 0.00 53 1013.6
20260506225051 22 173 4.8 19.3 0.00 0.00 0.00 53 1013.6
20260506224551 22 232 8.0 19.3 0.00 0.00 0.00 53 1013.6
20260506224054 22 299 6.4 14.5 0.00 0.00 0.00 52 1013.8
20260506223557 22 243 6.4 14.5 0.00 0.00 0.00 53 1013.7
20260506223048 22 252 4.8 11.3 0.00 0.00 0.00 53 1013.9
20260506222547 22 263 6.4 14.5 0.00 0.00 0.00 53 1014.0
20260506222047 22 228 4.8 17.7 0.00 0.00 0.00 53 1014.1
20260506221545 23 287 4.8 16.1 0.00 0.00 0.00 52 1014.1
20260506221045 23 283 4.8 12.9 0.00 0.00 0.00 51 1014.2
20260506220542 22 248 3.2 12.9 0.00 0.00 0.00 51 1014.3
20260506220041 22 229 4.8 12.9 0.00 0.00 0.00 52 1014.4
20260506215544 22 227 1.6 16.1 0.00 0.00 0.00 52 1014.4
20260506215039 22 240 1.6 14.5 0.00 0.00 0.00 52 1014.4
20260506214539 23 277 6.4 16.1 0.00 0.00 0.00 50 1014.5
20260506214038 23 200 8.0 16.1 0.00 0.00 0.00 49 1014.6
20260506213537 23 240 0.0 9.7 0.00 0.00 0.00 49 1014.6
20260506213036 23 131 0.0 9.7 0.00 0.00 0.00 50 1014.7
20260506212533 23 246 3.2 9.7 0.00 0.00 0.00 50 1014.8
20260506212035 22 253 0.0 9.7 0.00 0.00 0.00 50 1014.9
20260506211533 22 267 3.2 9.7 0.00 0.00 0.00 50 1014.9
20260506211029 22 166 4.8 9.7 0.00 0.00 0.00 50 1014.9
20260506210528 22 265 1.6 12.9 0.00 0.00 0.00 52 1015.0
20260506210028 21 211 6.4 12.9 0.00 0.00 0.00 52 1015.2
20260506205528 22 277 3.2 11.3 0.00 0.00 0.00 52 1015.1
20260506205026 22 345 0.0 11.3 0.00 0.00 0.00 52 1015.2
20260506204525 22 246 6.4 12.9 0.00 0.00 0.00 52 1015.2
20260506204021 21 12 4.8 11.3 0.00 0.00 0.00 52 1015.3
20260506203520 21 235 4.8 11.3 0.00 0.00 0.00 53 1015.3
20260506203020 21 166 3.2 11.3 0.00 0.00 0.00 53 1015.4
20260506202517 21 330 3.2 8.0 0.00 0.00 0.00 54 1015.5
20260506202016 20 269 1.6 6.4 0.00 0.00 0.00 55 1015.5
20260506201518 20 347 1.6 11.3 0.00 0.00 0.00 55 1015.6
20260506201013 20 332 0.0 11.3 0.00 0.00 0.00 55 1015.8
20260506200517 20 258 0.0 11.3 0.00 0.00 0.00 56 1015.7
20260506200013 20 307 6.4 14.5 0.00 0.00 0.00 55 1015.8
20260506195510 21 256 9.7 14.5 0.00 0.00 0.00 54 1015.8
20260506195009 21 227 3.2 11.3 0.00 0.00 0.00 54 1015.9
20260506194515 21 215 1.6 6.4 0.00 0.00 0.00 55 1015.9
20260506194007 20 118 1.6 8.0 0.00 0.00 0.00 56 1016.0
20260506193505 20 243 0.0 9.7 0.00 0.00 0.00 58 1016.1
20260506193005 19 200 4.8 9.7 0.00 0.00 0.00 57 1016.1
20260506192508 19 307 3.2 9.7 0.00 0.00 0.00 57 1016.2
20260506192002 19 326 1.6 9.7 0.00 0.00 0.00 56 1016.3
20260506191501 20 267 1.6 9.7 0.00 0.00 0.00 57 1016.5
20260506191100 19 160 3.2 9.7 0.00 0.00 0.00 57 1016.5
20260506190559 19 158 0.0 6.4 0.00 0.00 0.00 57 1016.5
20260506185556 18 169 0.0 8.0 0.00 0.00 0.00 60 1016.6
20260506185056 18 97 4.8 8.0 0.00 0.00 0.00 58 1016.6
20260506184555 18 105 4.8 8.0 0.00 0.00 0.00 58 1016.7
20260506184055 19 72 4.8 8.0 0.00 0.00 0.00 57 1016.7
20260506183554 18 154 0.0 4.8 0.00 0.00 0.00 58 1016.7
20260506183052 18 218 0.0 1.6 0.00 0.00 0.00 59 1016.8
20260506182551 18 233 0.0 8.0 0.00 0.00 0.00 59 1016.9
20260506182049 18 211 3.2 8.0 0.00 0.00 0.00 60 1016.9
20260506181548 18 203 3.2 8.0 0.00 0.00 0.00 61 1016.9
20260506181046 17 135 1.6 9.7 0.00 0.00 0.00 62 1016.9
20260506180548 17 176 3.2 9.7 0.00 0.00 0.00 63 1017.0
20260506180055 17 115 3.2 8.0 0.00 0.00 0.00 62 1017.0
20260506175542 17 125 1.6 11.3 0.00 0.00 0.00 64 1017.0
20260506175041 16 121 3.2 11.3 0.00 0.00 0.00 65 1017.0
20260506174544 16 131 1.6 11.3 0.00 0.00 0.00 65 1016.9
20260506174042 16 105 3.2 11.3 0.00 0.00 0.00 65 1016.9
20260506173539 16 109 4.8 12.9 0.00 0.00 0.00 65 1016.9
20260506173039 16 105 6.4 12.9 0.00 0.00 0.00 63 1017.0
20260506172536 16 92 0.0 4.8 0.00 0.00 0.00 64 1017.0
20260506172035 17 120 0.0 4.8 0.00 0.00 0.00 62 1017.0
20260506171534 16 229 0.0 8.0 0.00 0.00 0.00 64 1017.1
20260506171034 16 207 1.6 8.0 0.00 0.00 0.00 66 1017.0
20260506170531 16 93 3.2 6.4 0.00 0.00 0.00 65 1016.9
20260506170030 16 270 0.0 4.8 0.00 0.00 0.00 65 1017.0
20260506165528 16 281 0.0 9.7 0.00 0.00 0.00 65 1016.9
20260506165027 16 215 0.0 9.7 0.00 0.00 0.00 66 1017.0
20260506164529 16 77 4.8 9.7 0.00 0.00 0.00 66 1016.9
20260506164026 16 267 4.8 8.0 0.00 0.00 0.00 65 1017.0
20260506163525 16 145 0.0 4.8 0.00 0.00 0.00 67 1017.0
20260506163048 15 150 0.0 9.7 0.00 0.00 0.00 66 1016.9
20260506162525 15 163 3.2 9.7 0.00 0.00 0.00 67 1017.0
20260506162024 15 163 0.0 4.8 0.00 0.00 0.00 67 1016.9
20260506161521 15 164 1.6 4.8 0.00 0.00 0.00 67 1017.0
20260506161020 15 149 1.6 8.0 0.00 0.00 0.00 68 1017.0
20260506160519 15 190 1.6 8.0 0.00 0.00 0.00 69 1017.0
20260506160020 15 127 1.6 6.4 0.00 0.00 0.00 68 1017.1
20260506155517 15 129 1.6 4.8 0.00 0.00 0.00 69 1017.1
20260506155016 15 140 0.0 8.0 0.00 0.00 0.00 70 1017.1
20260506154515 14 229 1.6 8.0 0.00 0.00 0.00 70 1017.1
20260506154014 14 131 3.2 9.7 0.00 0.00 0.00 71 1017.1
20260506153513 13 120 0.0 9.7 0.00 0.00 0.00 71 1017.2
20260506153013 14 128 1.6 6.4 0.00 0.00 0.00 71 1017.2
20260506152513 13 155 0.0 6.4 0.00 0.00 0.00 71 1017.1
20260506152014 13 135 0.0 4.8 0.00 0.00 0.00 72 1017.1
20260506151511 13 132 0.0 4.8 0.00 0.00 0.00 72 1017.1
20260506151008 13 131 0.0 4.8 0.00 0.00 0.00 72 1017.2
20260506150508 13 135 1.6 3.2 0.00 0.00 0.00 72 1017.2
20260506150007 12 135 0.0 3.2 0.00 0.00 0.00 72 1017.2
20260506145510 12 135 0.0 3.2 0.00 0.00 0.00 72 1017.2
20260506145005 12 132 0.0 3.2 0.00 0.00 0.00 72 1017.2
20260506144504 12 131 0.0 8.0 0.00 0.00 0.00 72 1017.3
20260506144003 12 131 0.0 8.0 0.00 0.00 0.00 72 1017.2
20260506143502 12 153 0.0 6.4 0.00 0.00 0.00 72 1017.2
20260506143001 11 134 1.6 6.4 0.00 0.00 0.00 73 1017.2
20260506142602 -17 0.0 0.0 0.00 0.00 0.00 1017.2
20260506142501 -17 0.0 0.0 0.00 0.00 0.00 1017.2
20260506142058 -17 0.0 0.0 0.00 0.00 0.00 1017.2
20260506141557 -17 0.0 0.0 0.00 0.00 0.00 1017.2
20260506141057 -17 0.0 0.0 0.00 0.00 0.00 1017.0
20260506140554 -17 0.0 0.0 0.00 0.00 0.00 1017.0
20260506140056 -17 0.0 0.0 0.00 0.00 0.00 1016.9
20260506135550 -17 0.0 0.0 0.00 0.00 0.00 1016.9
20260506135049 -17 0.0 0.0 0.00 0.00 0.00 1016.8
20260506134547 -17 0.0 0.0 0.00 0.00 0.00 1016.7
20260506134048 -17 0.0 0.0 0.00 0.00 0.00 1016.7
20260506133545 -17 0.0 0.0 0.00 0.00 0.00 1016.7
20260506133043 -17 0.0 0.0 0.00 0.00 0.00 1016.7
20260506132543 -17 0.0 0.0 0.00 0.00 0.00 1016.7
20260506132040 -17 0.0 0.0 0.00 0.00 0.00 1016.6
20260506131539 -17 0.0 0.0 0.00 0.00 0.00 1016.6
20260506131037 -17 0.0 0.0 0.00 0.00 0.00 1016.6
20260506130536 -17 0.0 0.0 0.00 0.00 0.00 1016.5
20260506130034 -17 0.0 0.0 0.00 0.00 0.00 1016.4
20260506125535 -17 0.0 0.0 0.00 0.00 0.00 1016.4
20260506125035 -17 0.0 0.0 0.00 0.00 0.00 1016.4
20260506124530 -17 0.0 0.0 0.00 0.00 0.00 1016.4
20260506124028 -17 0.0 0.0 0.00 0.00 0.00 1016.3
20260506123527 -17 0.0 0.0 0.00 0.00 0.00 1016.4
20260506123028 -17 0.0 0.0 0.00 0.00 0.00 1016.3
20260506122525 -17 0.0 0.0 0.00 0.00 0.00 1016.2
20260506122022 -17 0.0 0.0 0.00 0.00 0.00 1016.2
20260506121523 -17 0.0 0.0 0.00 0.00 0.00 1016.1
20260506121019 -17 0.0 0.0 0.00 0.00 0.00 1016.1
20260506120518 -17 0.0 0.0 0.00 0.00 0.00 1016.0
20260506120017 -17 0.0 0.0 0.00 0.00 0.00 1016.0
20260506115514 -17 0.0 0.0 0.00 0.00 0.00 1016.0
20260506115013 -17 0.0 0.0 0.00 0.00 0.00 1016.0
20260506114512 -17 0.0 0.0 0.00 0.00 0.00 1015.9
20260506114011 -17 0.0 0.0 0.00 0.00 0.00 1015.9
20260506113509 -17 0.0 0.0 0.00 0.00 0.00 1015.9
20260506113007 -17 0.0 0.0 0.00 0.00 0.00 1016.0
20260506112508 -17 0.0 0.0 0.00 0.00 0.00 1015.9
20260506112005 -17 0.0 0.0 0.00 0.00 0.00 1015.9
20260506111506 -17 0.0 0.0 0.00 0.00 0.00 1015.9
20260506111003 -17 0.0 0.0 0.00 0.00 0.00 1015.9
20260506110601 -17 0.0 0.0 0.00 0.00 0.00 1015.8
20260506110104 -17 0.0 0.0 0.00 0.00 0.00 1015.9
20260506105558 -17 0.0 0.0 0.00 0.00 0.00 1015.9
20260506105057 -17 0.0 0.0 0.00 0.00 0.00 1015.8
20260506104555 -17 0.0 0.0 0.00 0.00 0.00 1015.9
20260506104054 -17 0.0 0.0 0.00 0.00 0.00 1015.8
20260506103552 -17 0.0 0.0 0.00 0.00 0.00 1016.0
20260506103051 -17 0.0 0.0 0.00 0.00 0.00 1015.9
20260506102550 -17 0.0 0.0 0.00 0.00 0.00 1015.8
20260506102049 -17 0.0 0.0 0.00 0.00 0.00 1015.8
20260506101549 -17 0.0 0.0 0.00 0.00 0.00 1015.9
20260506101049 -17 0.0 0.0 0.00 0.00 0.00 1015.8
20260506100543 -17 0.0 0.0 0.00 0.00 0.00 1015.8
20260506100045 -17 0.0 0.0 0.00 0.00 0.00 1015.8
20260506095545 -17 0.0 0.0 0.00 0.00 0.00 1015.9
20260506095039 -17 0.0 0.0 0.00 0.00 0.00 1016.0
20260506094548 -17 0.0 0.0 0.00 0.00 0.00 1015.9
20260506094037 -17 0.0 0.0 0.00 0.00 0.00 1016.0
20260506093537 -17 0.0 0.0 0.00 0.00 0.00 1015.9
20260506093033 -17 0.0 0.0 0.00 0.00 0.00 1015.9
20260506092532 -17 0.0 0.0 0.00 0.00 0.00 1016.0
20260506092033 -17 0.0 0.0 0.00 0.00 0.00 1016.0
20260506091530 -17 0.0 0.0 0.00 0.00 0.00 1015.9
20260506091028 -17 0.0 0.0 0.00 0.00 0.00 1016.0
20260506090526 -17 0.0 0.0 0.00 0.00 0.00 1016.0
20260506090024 -17 0.0 0.0 0.00 0.00 0.00 1016.1
20260506085523 -17 0.0 0.0 0.00 0.00 0.00 1016.2
20260506085022 -17 0.0 0.0 0.00 0.00 0.00 1016.3
20260506084520 -17 0.0 0.0 0.00 0.00 0.00 1016.3
20260506084019 -17 0.0 0.0 0.00 0.00 0.00 1016.3
20260506083518 -17 0.0 0.0 0.00 0.00 0.00 1016.4
20260506083017 -17 0.0 0.0 0.00 0.00 0.00 1016.4
20260506082514 -17 0.0 0.0 0.00 0.00 0.00 1016.3
20260506082013 -17 0.0 0.0 0.00 0.00 0.00 1016.3
20260506081512 -17 0.0 0.0 0.00 0.00 0.00 1016.4
20260506081010 -17 0.0 0.0 0.00 0.00 0.00 1016.4
20260506080510 -17 0.0 0.0 0.00 0.00 0.00 1016.5
20260506073108 -17 0.0 0.0 0.00 0.00 0.00 1016.5
20260506072556 -17 0.0 0.0 0.00 0.00 0.00 1016.5
20260506072055 -17 0.0 0.0 0.00 0.00 0.00 1016.5
20260506071554 -17 0.0 0.0 0.00 0.00 0.00 1016.4
20260506071052 -17 0.0 0.0 0.00 0.00 0.00 1016.4
20260506070551 -17 0.0 0.0 0.00 0.00 0.00 1016.2
20260506062038 -17 0.0 0.0 0.00 0.00 0.00 1015.8
20260506061537 -17 0.0 0.0 0.00 0.00 0.00 1015.8
20260506061035 -17 0.0 0.0 0.00 0.00 0.00 1015.8
20260506060534 -17 0.0 0.0 0.00 0.00 0.00 1015.7
20260506051017 -17 0.0 0.0 0.00 0.00 0.00 1015.5
20260506050518 -17 0.0 0.0 0.00 0.00 0.00 1015.5
20260506045013 10 262 0.0 1.6 0.00 0.00 0.00 74 1015.2
20260506044513 11 262 0.0 3.2 0.00 0.00 0.00 72 1015.2
20260506044016 11 262 0.0 3.2 0.00 0.00 0.00 72 1015.2
20260506043511 10 262 0.0 0.0 0.00 0.00 0.00 72 1015.1
20260506043011 10 262 0.0 0.0 0.00 0.00 0.00 72 1015.1
20260506042512 11 262 0.0 0.0 0.00 0.00 0.00 72 1015.0
20260506042011 11 261 0.0 0.0 0.00 0.00 0.00 72 1014.8
20260506041508 11 262 0.0 0.0 0.00 0.00 0.00 72 1014.8
20260506041012 11 262 0.0 0.0 0.00 0.00 0.00 72 1014.7
20260506040506 11 261 0.0 0.0 0.00 0.00 0.00 72 1014.6
20260506040010 11 262 0.0 0.0 0.00 0.00 0.00 71 1014.6
20260506035505 11 262 0.0 0.0 0.00 0.00 0.00 71 1014.5
20260506035004 11 261 0.0 0.0 0.00 0.00 0.00 71 1014.4
20260506034504 11 262 0.0 0.0 0.00 0.00 0.00 71 1014.4
20260506034004 11 261 0.0 0.0 0.00 0.00 0.00 71 1014.3
20260506033502 11 261 0.0 0.0 0.00 0.00 0.00 71 1014.1
20260506033002 11 261 0.0 0.0 0.00 0.00 0.00 71 1014.2
20260506032502 11 262 0.0 0.0 0.00 0.00 0.00 70 1014.1
20260506032001 12 262 0.0 0.0 0.00 0.00 0.00 70 1014.0
20260506031504 12 262 0.0 0.0 0.00 0.00 0.00 70 1014.0
20260506031059 12 262 0.0 0.0 0.00 0.00 0.00 70 1013.9
20260506030600 12 262 0.0 0.0 0.00 0.00 0.00 70 1013.9
20260506025557 12 261 0.0 0.0 0.00 0.00 0.00 69 1013.6
20260506025055 13 262 0.0 0.0 0.00 0.00 0.00 67 1013.4
20260506024555 13 262 0.0 0.0 0.00 0.00 0.00 67 1013.3
20260506024055 13 261 0.0 1.6 0.00 0.00 0.00 66 1013.3
20260506023556 13 262 0.0 3.2 0.00 0.00 0.00 66 1013.3
20260506023058 13 262 0.0 3.2 0.00 0.00 0.00 65 1013.2
20260506022554 13 262 0.0 3.2 0.00 0.00 0.00 65 1013.2
20260506022054 13 262 0.0 6.4 0.00 0.00 0.00 65 1013.1
20260506021558 13 297 3.2 6.4 0.00 0.00 0.00 64 1013.1
20260506021054 13 267 3.2 6.4 0.00 0.00 0.00 64 1013.0
20260506020554 13 257 1.6 6.4 0.00 0.00 0.00 63 1012.9
20260506020057 14 256 3.2 6.4 0.00 0.00 0.00 63 1012.9
20260506015553 14 267 3.2 6.4 0.00 0.00 0.00 62 1013.0
20260506015055 14 256 3.2 8.0 0.00 0.00 0.00 62 1012.9
20260506014553 14 269 3.2 9.7 0.00 0.00 0.00 63 1013.0
20260506014053 14 270 4.8 9.7 0.00 0.00 0.00 62 1012.9
20260506013552 15 243 1.6 6.4 0.00 0.00 0.00 62 1012.9
20260506013052 14 267 3.2 6.4 0.00 0.00 0.00 62 1012.8
20260506012552 15 255 3.2 8.0 0.00 0.00 0.00 62 1012.8
20260506012052 15 271 4.8 8.0 0.00 0.00 0.00 62 1012.8
20260506011556 15 243 4.8 8.0 0.00 0.00 0.00 60 1012.8
20260506011055 15 255 4.8 8.0 0.00 0.00 0.00 60 1012.8
20260506010551 15 259 4.8 8.0 0.00 0.00 0.00 60 1012.9
20260506010056 15 249 1.6 8.0 0.00 0.00 0.00 60 1012.8
20260506005551 15 271 3.2 8.0 0.00 0.00 0.00 59 1012.9
20260506005051 15 221 0.0 4.8 0.00 0.00 0.00 58 1012.8
20260506004551 15 170 0.0 9.7 0.00 0.00 0.00 57 1012.8
20260506004049 15 217 4.8 9.7 0.00 0.00 0.00 55 1012.8
20260506003549 16 255 3.2 8.0 0.00 0.00 0.00 55 1012.7
20260506003049 15 191 0.0 4.8 0.00 0.00 0.00 56 1012.7
20260506002554 15 130 1.6 8.0 0.00 0.00 0.00 55 1012.7
20260506002049 16 191 0.0 8.0 0.00 0.00 0.00 54 1012.8
20260506001548 16 242 3.2 6.4 0.00 0.00 0.00 56 1012.7
20260506001047 16 259 1.6 11.3 0.00 0.00 0.00 54 1012.6
20260506000545 16 276 4.8 11.3 0.00 0.00 0.00 55 1012.6
20260506000045 16 177 0.0 9.7 0.00 0.00 0.00 55 1012.6
20260505235544 16 158 1.6 9.7 0.00 0.00 0.00 57 1012.6
20260505235045 15 259 3.2 8.0 0.00 0.00 0.00 57 1012.6
20260505234553 15 277 4.8 9.7 0.00 0.00 0.00 58 1012.6
20260505234043 15 278 4.8 9.7 0.00 0.00 0.00 57 1012.6
20260505233543 15 274 4.8 9.7 0.00 0.00 0.00 58 1012.7
20260505233044 15 239 4.8 9.7 0.00 0.00 0.00 58 1012.8